Sexton Summit, OR

3:40 PM PDT on October 22, 2017 (GMT -0700)
Sexton Summit

Weather History for KSXT - May, 2014

Change the Weather History Date:

Wednesday, May 28, 2014

  Actual Average Record
Temperature  
Mean Temperature 44 °F -  
Max Temperature 55 °F 61 °F 80 °F (2017)
Min Temperature 36 °F 40 °F 32 °F (2011)
Degree Days  
Heating Degree Days 21    
Moisture  
Dew Point 36 °F    
Average Humidity 85    
Maximum Humidity 100    
Minimum Humidity 54    
Precipitation  
Precipitation 0.00 in - - ()
Sea Level Pressure  
Sea Level Pressure 30.17 in    
Wind  
Wind Speed 3 mph (NNW)    
Max Wind Speed 12 mph    
Max Gust Speed 24 mph    
Visibility 8 miles    
Events Fog , Rain    
Averages and records for this station are not official NWS values.
T = Trace of Precipitation, MM = Missing Value Source: NWS Daily Summary

Daily Weather History Graph

Daily Weather History Graph

Search for Another Location

Airport or City:

Trip Planner

Search our weather history database for the weather conditions in past years. The results will help you decide how hot, cold, wet, or windy it might be!

Date:

Astronomy

May. 28, 2014 Rise Set
Actual Time 5:40 AM PDT 8:41 PM PDT
Civil Twilight 5:06 AM PDT 9:15 PM PDT
Nautical Twilight 4:23 AM PDT 9:58 PM PDT
Astronomical Twilight 3:33 AM PDT 10:49 PM PDT
Moon 5:52 AM PDT (5/28) 8:43 PM PDT (5/28)
Length of Visible Light 16h 08m
Length of Day
15h 01m
New Moon, 0% of the Moon is Illuminated
May 28
New Moon
Jun 5
First Quarter
Jun 12
Full
Jun 19
Last Quarter
Jun 27
New

Hourly Weather History & Observations

Time (PDT) Temp. Windchill Dew Point Humidity Pressure Visibility Wind Dir Wind Speed Gust Speed Precip Events Conditions
12:08 AM 37.9 °F 34.4 °F 36.0 °F 93% 30.13 in 10.0 mi NNW 4.6 mph - N/A   Mostly Cloudy
12:34 AM 39.0 °F 35.7 °F 36.0 °F 89% 30.13 in 10.0 mi NNW 4.6 mph - N/A   Overcast
12:43 AM 39.0 °F - 36.0 °F 89% 30.13 in 10.0 mi Calm Calm - N/A   Overcast
12:56 AM 39.0 °F 36.8 °F 36.0 °F 89% 30.10 in 10.0 mi Variable 3.5 mph - N/A   Overcast
1:08 AM 37.9 °F 35.5 °F 36.0 °F 93% 30.13 in 10.0 mi Variable 3.5 mph - N/A   Overcast
1:56 AM 37.9 °F 34.4 °F 36.0 °F 93% 30.10 in 10.0 mi NNW 4.6 mph - N/A   Overcast
2:56 AM 36.0 °F 31.1 °F 34.0 °F 93% 30.12 in 10.0 mi NNW 5.8 mph - N/A   Scattered Clouds
3:32 AM 37.0 °F 34.5 °F 36.0 °F 96% 30.14 in 10.0 mi NNW 3.5 mph - N/A   Overcast
3:56 AM 37.0 °F - 36.0 °F 96% 30.12 in 10.0 mi Calm Calm - N/A   Overcast
4:28 AM 37.0 °F - 35.1 °F 93% 30.14 in 10.0 mi Calm Calm - N/A   Overcast
4:56 AM 37.0 °F - 36.0 °F 96% 30.12 in 10.0 mi Calm Calm - N/A   Overcast
5:01 AM 37.0 °F 34.5 °F 36.0 °F 96% 30.14 in 10.0 mi Variable 3.5 mph - N/A   Overcast
5:12 AM 37.0 °F - 36.0 °F 96% 30.14 in 6.0 mi Calm Calm - 0.00 in Rain Light Rain
5:23 AM 37.0 °F 33.3 °F 36.0 °F 96% 30.14 in 2.0 mi Variable 4.6 mph - 0.00 in   Overcast
5:33 AM 36.0 °F 32.1 °F 35.1 °F 97% 30.14 in 3.0 mi NNW 4.6 mph - 0.01 in Rain Light Rain
5:44 AM 36.0 °F 32.1 °F 35.1 °F 97% 30.15 in 5.0 mi NW 4.6 mph - 0.01 in Rain Light Rain
6:06 AM 36.0 °F 32.1 °F 35.1 °F 97% 30.15 in 10.0 mi NNW 4.6 mph - N/A   Overcast
6:21 AM 36.0 °F 32.1 °F 36.0 °F 100% 30.16 in 5.0 mi NNW 4.6 mph - N/A   Overcast
6:27 AM 37.0 °F 34.5 °F 36.0 °F 96% 30.16 in 1.8 mi NNW 3.5 mph - N/A   Overcast
6:34 AM 37.0 °F 34.5 °F 36.0 °F 96% 30.16 in 1.0 mi NNW 3.5 mph - N/A   Overcast
6:39 AM 37.4 °F 34.9 °F 35.6 °F 93% 30.16 in 0.8 mi NNW 3.5 mph - N/A   Overcast
6:45 AM 37.0 °F - 37.0 °F 100% 30.16 in 0.2 mi Calm Calm - N/A Fog Fog
6:56 AM 37.0 °F 34.5 °F 37.0 °F 100% 30.16 in 0.2 mi NNW 3.5 mph - N/A Fog Fog
7:06 AM 37.0 °F - 37.0 °F 100% 30.16 in 1.0 mi Calm Calm - N/A   Overcast
7:09 AM 37.0 °F - 37.0 °F 100% 30.16 in 3.0 mi Calm Calm - N/A   Overcast
7:16 AM 37.9 °F - 37.0 °F 97% 30.16 in 10.0 mi Calm Calm - N/A   Overcast
7:56 AM 37.9 °F - 37.0 °F 97% 30.18 in 10.0 mi Calm Calm - N/A   Overcast
8:56 AM 39.9 °F 37.8 °F 37.0 °F 89% 30.19 in 10.0 mi North 3.5 mph - N/A   Scattered Clouds
9:29 AM 39.0 °F - 37.0 °F 93% 30.19 in 10.0 mi Calm Calm - N/A   Mostly Cloudy
9:56 AM 41.0 °F - 35.1 °F 79% 30.22 in 10.0 mi Calm Calm - N/A   Scattered Clouds
11:56 AM 48.0 °F - 35.1 °F 61% 30.22 in 10.0 mi NNE 5.8 mph - N/A   Mostly Cloudy
12:56 PM 48.0 °F - 36.0 °F 63% 30.22 in 10.0 mi Calm Calm - N/A   Overcast
1:56 PM 51.1 °F - 35.1 °F 54% 30.21 in 10.0 mi Variable 3.5 mph - N/A   Mostly Cloudy
2:56 PM 51.1 °F - 37.9 °F 61% 30.22 in 10.0 mi Variable 3.5 mph - N/A   Mostly Cloudy
3:56 PM 50.0 °F - 37.0 °F 61% 30.22 in 10.0 mi Variable 3.5 mph - N/A   Mostly Cloudy
4:17 PM 51.1 °F - 37.9 °F 61% 30.22 in 10.0 mi North - - N/A   Overcast
4:24 PM 50.0 °F - 37.9 °F 63% 30.22 in 10.0 mi Variable 3.5 mph - N/A   Overcast
4:32 PM 48.9 °F - 37.9 °F 66% 30.22 in 10.0 mi Variable 3.5 mph - N/A   Overcast
4:46 PM 52.0 °F - 39.0 °F 61% 30.22 in 10.0 mi NW 4.6 mph - N/A   Overcast
4:56 PM 52.0 °F - 39.0 °F 61% 30.22 in 10.0 mi Calm Calm - N/A   Overcast
5:56 PM 52.0 °F - 37.9 °F 59% 30.21 in 10.0 mi Variable 3.5 mph - N/A   Partly Cloudy
6:56 PM 48.9 °F - 35.1 °F 59% 30.21 in 10.0 mi Variable 3.5 mph - N/A   Clear
7:51 PM 46.4 °F - 37.4 °F 71% 30.21 in 10.0 mi North - - N/A   Mostly Cloudy
8:30 PM 44.1 °F 40.1 °F 37.9 °F 79% 30.20 in 10.0 mi Variable 6.9 mph 19.6 mph N/A   Scattered Clouds
8:56 PM 42.1 °F 35.7 °F 37.0 °F 82% 30.22 in 10.0 mi North 11.5 mph 24.2 mph N/A   Clear
9:56 PM 41.0 °F 34.3 °F 37.0 °F 86% 30.23 in 10.0 mi North 11.5 mph 19.6 mph N/A   Clear
10:56 PM 39.9 °F 32.9 °F 37.0 °F 89% 30.22 in 10.0 mi North 11.5 mph 20.7 mph N/A   Clear
11:56 PM 39.9 °F 33.9 °F 37.9 °F 93% 30.21 in 10.0 mi North 9.2 mph - N/A   Clear